This is the latest recevied weather packets stored in our database for station/object JS2QVS-13. If no packets are shown the sender has not sent any weather packets the latest 10 day(s).
| Time | Temp. | Humidity | Pressure | Rain* | Wind** | Luminosity | Snow |
|---|---|---|---|---|---|---|---|
| 1777838862 | 20° C | 93% | 996.9 hPa | 3.05 mm | - | - | - |
| 1777838262 | 20.56° C | 93% | 996.6 hPa | 3.81 mm | - | - | - |
| 1777837662 | 20.56° C | 93% | 996.4 hPa | 5.08 mm | - | - | - |
| 1777837062 | 20.56° C | 93% | 996.3 hPa | 6.86 mm | - | - | - |
| 1777836461 | 20.56° C | 92% | 996.2 hPa | 6.6 mm | - | - | - |
| 1777835861 | 20.56° C | 92% | 996.3 hPa | 5.33 mm | - | - | - |
| 1777834661 | 20.56° C | 92% | 995.7 hPa | 4.06 mm | - | - | - |
| 1777834061 | 20.56° C | 92% | 995.4 hPa | 2.54 mm | - | - | - |
| 1777833463 | 20.56° C | 90% | 995.5 hPa | 0.76 mm | - | - | - |
| 1777832863 | 20.56° C | 89% | 995.5 hPa | 0 mm | - | - | - |
| 1777832263 | 20.56° C | 89% | 995.7 hPa | 0 mm | - | - | - |
| 1777831663 | 20.56° C | 89% | 996 hPa | 0 mm | - | - | - |
| 1777831062 | 21.11° C | 89% | 996.3 hPa | 0 mm | - | - | - |
| 1777830462 | 20.56° C | 89% | 996.5 hPa | 0.25 mm | - | - | - |
| 1777829862 | 20.56° C | 89% | 996.6 hPa | 0.25 mm | - | - | - |
| 1777829262 | 20.56° C | 89% | 996.7 hPa | 0.25 mm | - | - | - |
| 1777828662 | 20.56° C | 90% | 997 hPa | 0.25 mm | - | - | - |
| 1777828062 | 20.56° C | 90% | 997.2 hPa | 0.25 mm | - | - | - |
| 1777827462 | 20.56° C | 90% | 997.3 hPa | 0.51 mm | - | - | - |
| 1777826862 | 20° C | 90% | 997.7 hPa | 0.51 mm | - | - | - |
| 1777825661 | 20° C | 92% | 998.2 hPa | 1.52 mm | - | - | - |
| 1777825061 | 19.44° C | 92% | 998.5 hPa | 2.03 mm | - | - | - |
| 1777824461 | 19.44° C | 92% | 998.9 hPa | 2.29 mm | - | - | - |
| 1777823861 | 19.44° C | 92% | 999.3 hPa | 0 mm | - | - | - |
| 1777823262 | 19.44° C | 92% | 999.8 hPa | 0 mm | - | - | - |
* Rain latest hour (hover to see other rain measurements)
** Current wind speed in m/s (hover to see current wind gust speed)